Gulkana, AK

1:58 PM AKST on February 19, 2018 (GMT -0900)
Gulkana

Weather History for PAGK - May, 2014

Change the Weather History Date:

Thursday, May 8, 2014

  Actual Average Record
Temperature  
Mean Temperature 46 °F -  
Max Temperature 59 °F 51 °F 71 °F (2005)
Min Temperature 34 °F 30 °F 8 °F (1964)
Degree Days  
Heating Degree Days 18    
Moisture  
Dew Point 31 °F    
Average Humidity 53    
Maximum Humidity 76    
Minimum Humidity 25    
Precipitation  
Precipitation 0.00 in - - ()
Sea Level Pressure  
Sea Level Pressure 29.76 in    
Wind  
Wind Speed 5 mph (SW)    
Max Wind Speed 13 mph    
Max Gust Speed -    
Visibility 10 miles    
Events      
Averages and records for this station are not official NWS values.
T = Trace of Precipitation, MM = Missing Value Source: NWS Daily Summary

Daily Weather History Graph

Daily Weather History Graph

Search for Another Location

Airport or City:

Trip Planner

Search our weather history database for the weather conditions in past years. The results will help you decide how hot, cold, wet, or windy it might be!

Date:

Astronomy

May. 08, 2014 Rise Set
Actual Time 5:05 AM AKDT 10:12 PM AKDT
Civil Twilight 3:58 AM AKDT 11:21 PM AKDT
Nautical Twilight 2:10 AM AKDT 1:05 AM AKDT
Astronomical Twilight Sun does not rise Sun does not rise
Moon 2:32 PM AKDT (5/8) 3:37 AM AKDT (5/8)
Length of Visible Light 19h 22m
Length of Day
17h 06m
Waxing Gibbous, 66% of the Moon is Illuminated
May 8
Waxing Gibbous
May 14
Full
May 21
Last Quarter
May 28
New
Jun 5
First Quarter

Hourly Weather History & Observations

Time (AKDT) Temp. Windchill Dew Point Humidity Pressure Visibility Wind Dir Wind Speed Gust Speed Precip Events Conditions
12:53 AM 41.0 °F 38.0 °F 28.0 °F 60% 29.72 in 10.0 mi NNW 4.6 mph - N/A   Clear
1:53 AM 42.1 °F 37.1 °F 28.0 °F 58% 29.72 in 10.0 mi North 8.1 mph - N/A   Partly Cloudy
2:53 AM 37.9 °F 34.4 °F 28.0 °F 68% 29.73 in 10.0 mi West 4.6 mph - N/A   Clear
3:53 AM 35.1 °F 30.1 °F 28.0 °F 76% 29.73 in 10.0 mi WNW 5.8 mph - N/A   Mostly Cloudy
4:53 AM 34.0 °F 31.0 °F 27.0 °F 75% 29.73 in 10.0 mi WNW 3.5 mph - N/A   Overcast
5:53 AM 34.0 °F 29.8 °F 27.0 °F 75% 29.73 in 10.0 mi WNW 4.6 mph - N/A   Overcast
7:53 AM 41.0 °F - 28.9 °F 62% 29.75 in 10.0 mi Calm Calm - N/A   Overcast
8:53 AM 43.0 °F - 28.9 °F 58% 29.75 in 10.0 mi Calm Calm - N/A   Overcast
9:53 AM 46.0 °F - 28.9 °F 51% 29.75 in 10.0 mi Calm Calm - N/A   Overcast
10:53 AM 48.9 °F - 30.0 °F 48% 29.75 in 10.0 mi SE 3.5 mph - N/A   Overcast
11:53 AM 52.0 °F - 30.0 °F 43% 29.76 in 10.0 mi East 4.6 mph - N/A   Overcast
1:53 PM 59.0 °F - 30.9 °F 35% 29.74 in 10.0 mi North - - N/A   Overcast
2:53 PM 57.0 °F - 28.9 °F 34% 29.75 in 10.0 mi Calm Calm - N/A   Overcast
3:53 PM 55.9 °F - 30.0 °F 37% 29.76 in 10.0 mi SSE 5.8 mph - N/A   Overcast
4:53 PM 55.9 °F - 33.1 °F 42% 29.77 in 10.0 mi SSE 9.2 mph - N/A   Overcast
5:53 PM 55.0 °F - 35.1 °F 47% 29.78 in 10.0 mi SSE 12.7 mph - N/A   Overcast
6:53 PM 54.0 °F - 36.0 °F 51% 29.78 in 10.0 mi SSE 11.5 mph - N/A   Overcast
7:53 PM 54.0 °F - 37.0 °F 53% 29.78 in 10.0 mi SSE 8.1 mph - N/A   Overcast
8:53 PM 53.1 °F - 37.0 °F 55% 29.80 in 10.0 mi South 3.5 mph - N/A   Overcast
9:53 PM 52.0 °F - 39.0 °F 61% 29.81 in 10.0 mi Calm Calm - N/A   Overcast
10:53 PM 48.0 °F - 37.9 °F 68% 29.82 in 10.0 mi North 3.5 mph - N/A   Overcast
11:53 PM 50.0 °F - 30.9 °F 48% 29.84 in 10.0 mi NNW 5.8 mph - N/A   Overcast